Location: Alpha Ridge Park
(39.3209°N, 76.9128°W)
Time: 07:49:37
(UTC-04:00)

S-56A Canister/Altair - Pass Details

Date: 28 May 2019
Orbit: 633 x 2499 km, 38.9° (Epoch: 15 June)

Event Time Altitude Azimuth Distance (km) Brightness Sun altitude
Rises 03:31:41 0° 271° (W) 3,409 - -20.2°
Reaches altitude 10° 03:33:49 10° 271° (W) 2,633 - -20.0°
Exits shadow 03:34:39 15° 271° (W) 2,344 9.7 -19.9°
Maximum altitude 03:40:10 87° 183° (S) 1,219 8.4 -19.2°
Drops below altitude 10° 03:50:02 10° 96° (E) 3,980 11.6 -18.0°
Sets 03:53:58 0° 96° (E) 5,263 12.3 -17.5°
